[[{"header":{"parameterUnit":"m.s-1","parameterCategory":1,"la1":30.2991,"la2":30.254,"lo1":-89.0895,"lo2":-89.0444,"dy":0.0017,"dx":0.0017,"nx":28,"ny":28,"refTime":"2024-12-23T03:00:00:Z","depth":0,"parameterNumber":2,"parameterNumberName":"U-component_of_WINDS"},"data":[0,0,0,0,0,0,0,0,0,0,0,0,0,0,0,0,0,0,0,0,0,0,0,0,0,0,0,0,0,0,0,0,0,0,0,0,0,0,0,0,0,0,0,0,0,0,0,0,0,0,0,0,0,0,0,0,0,0,-4.6339,-4.6339,0,-4.6394,-4.6394,-4.6395,-4.628,-4.6276,-4.6273,-4.6269,-4.6328,-4.6333,-4.6338,0,0,0,0,0,0,0,0,0,0,0,0,0,-4.6137,-4.6142,-4.6339,-4.6339,-4.634,-4.6394,-4.6394,-4.6395,-4.6281,-4.6276,-4.6272,-4.6267,-4.6326,-4.6332,-4.6338,0,0,0,0,0,0,0,0,0,0,0,0,0,-4.6212,-4.6143,-4.6339,-4.6289,-4.6285,-4.6394,-4.6395,-4.6395,-4.6282,-4.6276,-4.627,-4.6265,-4.6324,-4.6332,-4.6339,-4.6499,0,0,-4.6363,-4.6366,0,0,0,0,0,0,0,0,-4.6208,-4.622,-4.6296,-4.6293,-4.6289,-4.6324,-4.6345,-4.643,-4.6283,-4.6283,-4.6269,-4.6262,-4.6332,-4.6338,-4.6361,-4.6501,-4.6504,-4.6363,-4.6368,-4.6371,-4.6373,0,0,0,0,0,0,0,-4.6203,-4.6217,-4.636,-4.6297,-4.6293,-4.6266,-4.627,-4.6361,-4.6338,-4.6283,-4.6274,-4.6282,-4.6328,-4.6354,-4.6361,-4.6505,-4.6363,-4.637,-4.6374,-4.6377,-4.6782,-4.6788,0,0,0,0,0,0,-4.6204,-4.6213,-4.6359,-4.6362,-4.6234,-4.6274,-4.6279,-4.6319,-4.6337,-4.6334,-4.6287,-4.6277,-4.6344,-4.6353,-4.6363,-4.6553,-4.6371,-4.6378,-4.6382,-4.6776,-4.6783,-4.679,0,0,0,0,0,0,-4.62,-4.6218,-4.6356,-4.6285,-4.6301,-4.6283,-4.6329,-4.6323,-4.6348,-4.634,-4.6336,-4.6317,-4.634,-4.6352,-4.6466,-4.6553,-4.6382,-4.6388,-4.6768,-4.6778,-4.6786,-4.6933,0,0,0,0,0,0,-4.6194,-4.6217,-4.6277,-4.6288,-4.6305,-4.6458,-4.6334,-4.6328,-4.6361,-4.6348,-4.6367,-4.6365,-4.6336,-4.6456,-4.6474,-4.6561,-4.6394,-4.676,-4.6772,-4.6783,-4.692,-4.6946,-4.6968,0,0,0,0,0,-4.6188,-4.6316,-4.628,-4.6298,-4.6379,-4.6463,-4.6474,-4.6437,-4.6368,-4.6429,-4.6424,-4.6364,-4.6541,-4.6468,-4.6488,-4.6578,-4.6755,-4.6769,-4.6783,-4.691,-4.6941,-4.6968,0,0,0,0,0,0,-4.6316,-4.6316,-4.6277,-4.6412,-4.6439,-4.6444,-4.6519,-4.6471,-4.6518,-4.6504,-4.6458,-4.6463,-4.6587,-4.6593,-4.6513,-4.6735,-4.6636,-4.6655,-4.6726,-4.6756,-4.6779,-4.6776,-4.6401,0,0,0,0,0,-4.6359,-4.6427,-4.6424,-4.6543,-4.6559,-4.6537,-4.6572,-4.6542,-4.6568,-4.6579,-4.6582,-4.6611,-4.6672,-4.6714,-4.677,-4.692,-4.6924,-4.6992,-4.7016,-4.7036,-4.7053,-4.7135,-4.7166,-4.6835,-4.6835,-4.6835,0,0,-4.6451,-4.6459,-4.6505,-4.657,-4.6586,-4.6659,-4.6547,-4.6628,-4.6682,-4.6591,-4.6699,-4.6703,-4.6732,-4.6865,-4.6924,-4.6875,-4.7145,-4.7054,-4.7069,-4.7076,-4.7153,-4.7184,-4.7212,-4.6845,-4.6843,-4.6842,0,0,-4.6655,-4.6667,-4.6769,-4.6789,-4.6816,-4.6801,-4.6826,-4.6839,-4.6838,-4.6945,-4.688,-4.6943,-4.705,-4.7074,-4.71,-4.7315,-4.7263,-4.7335,-4.7461,-4.7542,-4.7568,-4.7591,-4.767,-4.7698,-4.7352,-4.7352,-4.7352,0,-4.6766,-4.6871,-4.6828,-4.6914,-4.6946,-4.6866,-4.6971,-4.6992,-4.7037,-4.7061,-4.7004,-4.7138,-4.7152,-4.7291,-4.7344,-4.7366,-4.7395,-4.7333,-4.7567,-4.759,-4.7611,-4.7686,-4.7715,-4.7361,-4.736,-4.7359,-4.7358,0,-4.7007,-4.7081,-4.7161,-4.7206,-4.7246,-4.7341,-4.7314,-4.7359,-4.7326,-4.7317,-4.7429,-4.7443,-4.7502,-4.7532,-4.75,-4.7668,-4.7636,-4.7575,-4.7475,-4.7652,-4.7721,-4.775,-4.7373,-4.737,-4.7368,-4.7365,0,0,-4.7293,-4.7314,-4.7344,-4.7365,-4.739,-4.7447,-4.7539,-4.7596,-4.7638,-4.7671,-4.7749,-4.7842,-4.7785,-4.7815,-4.7785,-4.7856,-4.8029,-4.7785,-4.7785,-4.7832,-4.8217,-4.8265,-4.8299,-4.7993,-4.7998,-4.8003,-4.8215,0,-4.7497,-4.7655,-4.762,-4.7776,-4.7845,-4.7772,-4.7852,-4.7877,-4.7872,-4.7931,-4.7925,-4.7993,-4.7912,-4.793,-4.7996,-4.7994,-4.8106,-4.7977,-4.8067,-4.8071,-4.8064,-4.8335,-4.8385,-4.8585,-4.8242,-4.8247,-4.825,0,-4.7756,-4.78,-4.7963,-4.7979,-4.8007,-4.808,-4.813,-4.8187,-4.8214,-4.8206,-4.824,-4.8197,-4.829,-4.8188,-4.8317,-4.8231,-4.8265,-4.827,-4.8277,-4.8285,-4.8172,-4.8353,-4.8648,-4.8679,-4.8292,-4.8289,-4.8286,0,-4.7952,-4.8052,-4.8163,-4.8182,-4.8202,-4.8256,-4.8267,-4.8289,-4.8326,-4.837,-4.8394,-4.8449,-4.848,-4.8525,-4.8498,-4.8426,-4.8633,-4.8528,-4.863,-4.8631,-4.8678,-4.8676,-4.8985,-4.8697,-4.8697,-4.8696,-4.8696,0,-4.8184,-4.8288,-4.8251,-4.832,-4.8434,-4.8393,-4.8508,-4.851,-4.853,-4.8599,-4.8539,-4.8605,-4.8565,-4.8629,-4.8609,-4.872,-4.8734,-4.8731,-4.8725,-4.8738,-4.8738,-4.8761,-4.8747,-4.8704,-4.8703,-4.8701,-4.87,0,-4.8423,-4.8402,-4.8519,-4.8528,-4.8533,-4.8618,-4.8627,-4.8691,-4.8681,-4.877,-4.8788,-4.8774,-4.8846,-4.8823,-4.8901,-4.8887,-4.9029,-4.9004,-4.902,-4.9015,-4.9119,-4.911,-4.9455,-4.9499,-4.9181,-4.9184,-4.9187,0,-4.8573,-4.8651,-4.867,-4.8712,-4.8727,-4.8795,-4.8833,-4.8796,-4.8838,-4.8876,-4.8937,-4.9004,-4.9055,-4.9174,-4.9171,-4.9231,-4.9208,-4.9325,-4.9217,-4.9228,-4.9213,-4.9209,-4.9218,-4.9347,-4.9351,-4.9354,-4.9356,0,-4.8844,-4.883,-4.8887,-4.8941,-4.8988,-4.9029,-4.9064,-4.9102,-4.9068,-4.9119,-4.9191,-4.9231,-4.9311,-4.9379,-4.9433,-4.9445,-4.9397,-4.939,-4.9417,-4.9432,-4.9439,-4.9439,-4.9081,-4.9382,-4.938,-4.9378,-4.9376,-4.9375,-4.9044,-4.9111,-4.9135,-4.9201,-4.9224,-4.9259,-4.9321,-4.9319,-4.9379,-4.944,-4.9415,-4.95,-4.9527,-4.9595,-4.9615,-4.9682,-4.9637,-4.9676,-4.9686,-4.9697,-4.9711,-4.9427,-4.9691,-4.969,-4.969,-4.9689,-4.9688,0,-4.9314,-4.9326,-4.9387,-4.9439,-4.9491,-4.9439,-4.9476,-4.9524,-4.9599,-4.9628,-4.968,-4.9765,-4.983,-4.9833,-4.9895,-4.9948,-4.9928,-4.9966,-4.9963,-4.9967,-4.9746,-4.9717,-4.9982,-4.9982,-4.9982,-4.9982,-4.9982,-4.9982,-4.946,-4.9571,-4.9561,-4.9683,-4.9694,-4.9776,-4.9802,-4.9835,-4.9858,-4.9956,-5.001,-5.0011,-5.003,-5.0093,-5.0152,-5.0151,-5.0178,-5.0226,-5.0217,-5.0011,-4.9982,-4.9954,-4.9927,-5.0231,-5.0232,-5.0432,-5.0434,-5.0436]},{"header":{"parameterUnit":"m.s-1","parameterCategory":1,"la1":30.2991,"la2":30.254,"lo1":-89.0895,"lo2":-89.0444,"dy":0.0017,"dx":0.0017,"nx":28,"ny":28,"refTime":"2024-12-23T03:00:00:Z","depth":0,"parameterNumber":3,"parameterNumberName":"V-component_of_WINDS"},"data":[0,0,0,0,0,0,0,0,0,0,0,0,0,0,0,0,0,0,0,0,0,0,0,0,0,0,0,0,0,0,0,0,0,0,0,0,0,0,0,0,0,0,0,0,0,0,0,0,0,0,0,0,0,0,0,0,0,0,-0.4142,-0.4142,0,-0.4147,-0.4147,-0.4147,-0.4082,-0.408,-0.4079,-0.4077,-0.4086,-0.4088,-0.409,0,0,0,0,0,0,0,0,0,0,0,0,0,-0.4079,-0.408,-0.4142,-0.4142,-0.4142,-0.4147,-0.4147,-0.4147,-0.4083,-0.408,-0.4078,-0.4076,-0.4085,-0.4088,-0.409,0,0,0,0,0,0,0,0,0,0,0,0,0,-0.4097,-0.4081,-0.4142,-0.411,-0.4107,-0.4147,-0.4147,-0.4147,-0.4083,-0.408,-0.4078,-0.4075,-0.4085,-0.4087,-0.409,-0.4161,0,0,-0.4099,-0.41,0,0,0,0,0,0,0,0,-0.4096,-0.41,-0.4115,-0.4112,-0.4109,-0.4111,-0.4128,-0.4152,-0.4084,-0.4092,-0.4077,-0.4074,-0.4097,-0.4098,-0.4105,-0.4162,-0.4162,-0.4099,-0.4101,-0.4102,-0.4103,0,0,0,0,0,0,0,-0.4095,-0.4099,-0.4144,-0.4115,-0.4112,-0.4097,-0.4096,-0.4132,-0.411,-0.4091,-0.4087,-0.4088,-0.4095,-0.4103,-0.4105,-0.4162,-0.4099,-0.4102,-0.4103,-0.4105,-0.4276,-0.4279,0,0,0,0,0,0,-0.4098,-0.4098,-0.4144,-0.4144,-0.4096,-0.41,-0.41,-0.4113,-0.4109,-0.4106,-0.409,-0.4085,-0.4099,-0.4102,-0.4105,-0.4188,-0.4102,-0.4105,-0.4106,-0.4274,-0.4277,-0.428,0,0,0,0,0,0,-0.4097,-0.4102,-0.4144,-0.412,-0.4124,-0.4104,-0.412,-0.4115,-0.4123,-0.4108,-0.4104,-0.4102,-0.4097,-0.4101,-0.4147,-0.4187,-0.4106,-0.4109,-0.427,-0.4275,-0.4279,-0.4354,0,0,0,0,0,0,-0.4095,-0.4102,-0.4129,-0.4121,-0.4125,-0.4185,-0.4122,-0.4117,-0.4127,-0.412,-0.4118,-0.4116,-0.4095,-0.4144,-0.415,-0.419,-0.4111,-0.4267,-0.4272,-0.4277,-0.4348,-0.436,-0.4371,0,0,0,0,0,-0.4093,-0.4151,-0.413,-0.4136,-0.4158,-0.4188,-0.419,-0.4165,-0.4131,-0.4157,-0.4148,-0.4116,-0.4182,-0.4149,-0.4156,-0.4197,-0.4264,-0.4271,-0.4277,-0.4343,-0.4358,-0.4371,0,0,0,0,0,0,-0.4165,-0.4149,-0.4126,-0.4183,-0.4187,-0.4177,-0.4209,-0.4182,-0.4196,-0.419,-0.4158,-0.4158,-0.421,-0.4208,-0.4172,-0.4265,-0.4217,-0.4225,-0.4265,-0.4279,-0.429,-0.429,-0.4113,0,0,0,0,0,-0.4187,-0.4212,-0.4197,-0.4249,-0.4251,-0.423,-0.4242,-0.4222,-0.4225,-0.4227,-0.4221,-0.4226,-0.4248,-0.4263,-0.4282,-0.4347,-0.4345,-0.4378,-0.439,-0.4399,-0.4407,-0.4441,-0.4455,-0.4301,-0.4301,-0.4301,0,0,-0.4235,-0.4229,-0.4246,-0.4263,-0.4263,-0.429,-0.4232,-0.4263,-0.4283,-0.4232,-0.4275,-0.4271,-0.4274,-0.433,-0.4354,-0.433,-0.4449,-0.4407,-0.4415,-0.4418,-0.4449,-0.4463,-0.4476,-0.4306,-0.4305,-0.4304,0,0,-0.4334,-0.4331,-0.4374,-0.4375,-0.4376,-0.4361,-0.4371,-0.4365,-0.4359,-0.4401,-0.4364,-0.4387,-0.4425,-0.4429,-0.4436,-0.4535,-0.4506,-0.4543,-0.4603,-0.4636,-0.4648,-0.4659,-0.4694,-0.4708,-0.455,-0.455,-0.455,0,-0.4392,-0.443,-0.4399,-0.4432,-0.4441,-0.4394,-0.4437,-0.444,-0.4448,-0.4456,-0.4428,-0.4474,-0.4473,-0.4529,-0.4553,-0.456,-0.4571,-0.4543,-0.4649,-0.4659,-0.4669,-0.4702,-0.4716,-0.4555,-0.4554,-0.4554,-0.4553,0,-0.4502,-0.4529,-0.4563,-0.457,-0.4582,-0.462,-0.4596,-0.4612,-0.459,-0.4579,-0.4622,-0.4619,-0.4637,-0.4648,-0.4628,-0.4701,-0.4686,-0.4654,-0.4605,-0.4688,-0.4719,-0.4732,-0.4561,-0.4559,-0.4558,-0.4557,0,0,-0.4648,-0.4636,-0.465,-0.4652,-0.4649,-0.4669,-0.4705,-0.472,-0.4735,-0.4742,-0.4771,-0.4804,-0.4774,-0.4782,-0.4762,-0.4791,-0.4869,-0.4755,-0.4755,-0.4777,-0.4949,-0.4973,-0.4989,-0.4849,-0.4851,-0.4853,-0.4949,0,-0.4745,-0.4804,-0.4777,-0.484,-0.4864,-0.4819,-0.485,-0.4852,-0.4842,-0.4862,-0.4851,-0.4874,-0.4833,-0.4837,-0.4864,-0.4854,-0.4903,-0.4847,-0.4877,-0.4879,-0.4878,-0.5005,-0.5031,-0.5121,-0.4961,-0.4963,-0.4964,0,-0.4865,-0.4875,-0.494,-0.4931,-0.4941,-0.4969,-0.4981,-0.5,-0.5001,-0.4991,-0.5,-0.4972,-0.5007,-0.4958,-0.5006,-0.4968,-0.4979,-0.4976,-0.4979,-0.4982,-0.4927,-0.5011,-0.5149,-0.5163,-0.4983,-0.4981,-0.498,0,-0.4966,-0.4996,-0.5038,-0.5041,-0.5032,-0.5053,-0.5051,-0.5049,-0.5059,-0.507,-0.5077,-0.5092,-0.51,-0.5113,-0.509,-0.5056,-0.5142,-0.5091,-0.5136,-0.5136,-0.5157,-0.5156,-0.5299,-0.5163,-0.5162,-0.5162,-0.5162,0,-0.5077,-0.5119,-0.5083,-0.5109,-0.5154,-0.5122,-0.5168,-0.5161,-0.5159,-0.5184,-0.5146,-0.517,-0.5139,-0.516,-0.5143,-0.5185,-0.5189,-0.5183,-0.5178,-0.5187,-0.5188,-0.5194,-0.5188,-0.5166,-0.5165,-0.5164,-0.5164,0,-0.5197,-0.5175,-0.5218,-0.5205,-0.5203,-0.5237,-0.5226,-0.525,-0.5236,-0.5268,-0.5273,-0.5253,-0.5275,-0.5254,-0.5276,-0.5264,-0.5321,-0.5307,-0.5321,-0.5317,-0.5363,-0.5359,-0.5516,-0.5535,-0.5386,-0.5388,-0.5389,0,-0.527,-0.5301,-0.529,-0.5303,-0.5302,-0.5324,-0.5334,-0.5304,-0.5316,-0.5319,-0.5343,-0.5362,-0.5376,-0.5415,-0.5402,-0.5419,-0.5405,-0.5459,-0.5407,-0.5415,-0.5406,-0.5405,-0.5408,-0.547,-0.5471,-0.5473,-0.5474,0,-0.5401,-0.5388,-0.5404,-0.5415,-0.5428,-0.5436,-0.5441,-0.5454,-0.5423,-0.5439,-0.5461,-0.5471,-0.5493,-0.5513,-0.5525,-0.5523,-0.5494,-0.549,-0.5501,-0.5511,-0.5517,-0.5515,-0.535,-0.5487,-0.5485,-0.5484,-0.5484,-0.5483,-0.55,-0.5525,-0.5521,-0.554,-0.554,-0.5545,-0.5567,-0.5555,-0.5572,-0.5586,-0.5568,-0.5595,-0.5594,-0.5608,-0.5609,-0.5631,-0.5608,-0.5625,-0.5629,-0.5634,-0.564,-0.5513,-0.5633,-0.5632,-0.5632,-0.5632,-0.5631,0,-0.563,-0.5625,-0.5642,-0.5649,-0.5664,-0.5633,-0.5636,-0.5651,-0.5675,-0.5676,-0.569,-0.5715,-0.5733,-0.5722,-0.5738,-0.5757,-0.5744,-0.5762,-0.5761,-0.5761,-0.5659,-0.5648,-0.5773,-0.5773,-0.5772,-0.5772,-0.5772,-0.5772,-0.5699,-0.5739,-0.5725,-0.5765,-0.576,-0.5785,-0.579,-0.5795,-0.5795,-0.5825,-0.5839,-0.5831,-0.5827,-0.5842,-0.5858,-0.5854,-0.5862,-0.5885,-0.5877,-0.5782,-0.5768,-0.5755,-0.5744,-0.5887,-0.5887,-0.5976,-0.5977,-0.5978]}]]